Overview Statistics Trail Chart Weather Telemetry Raw packets
 

This is the latest recevied weather packets stored in our database for station/object WW6Q. If no packets are shown the sender has not sent any weather packets the latest 10 day(s).

<< 93 94 95 96 97 98 99 >>
Time Temp. Humidity Pressure Rain* Wind** Luminosity Snow
1787933604 24.44° C 54% 1021.4 hPa 0 mm - 689 W/m² -
1787933304 24.44° C 60% 1021.2 hPa 0 mm - 680 W/m² -
1787933004 23.89° C 62% 1021.1 hPa 0 mm - 671 W/m² -
1787932702 23.89° C 59% 1021.4 hPa 0 mm - 657 W/m² -
1787932397 23.89° C 62% 1021.3 hPa 0 mm - 648 W/m² -
1787932092 23.33° C 63% 1021.3 hPa 0 mm - 639 W/m² -
1787931791 23.33° C 63% 1021.3 hPa 0 mm - 627 W/m² -
1787931500 23.33° C 62% 1021.3 hPa 0 mm - 620 W/m² -
1787931186 23.33° C 64% 1021.4 hPa 0 mm - 615 W/m² -
1787930584 23.33° C 63% 1021.4 hPa 0 mm - 584 W/m² -
1787930280 22.78° C 63% 1021.5 hPa 0 mm - 568 W/m² -
1787929974 23.33° C 62% 1021.3 hPa 0 mm - 555 W/m² -
1787929673 22.78° C 63% 1021.3 hPa 0 mm - 546 W/m² -
1787929368 22.78° C 68% 1021.4 hPa 0 mm - 532 W/m² -
1787929065 22.22° C 67% 1021.4 hPa 0 mm - 518 W/m² -
1787928761 22.22° C 65% 1021.3 hPa 0 mm - 504 W/m² -
1787928459 22.22° C 64% 1021.3 hPa 0 mm - 489 W/m² -
1787928158 21.67° C 65% 1021.3 hPa 0 mm - 471 W/m² -
1787927858 22.22° C 63% 1021.2 hPa 0 mm - 461 W/m² -
1787927553 22.22° C 63% 1021.2 hPa 0 mm - 445 W/m² -
1787927248 21.11° C 65% 1021.3 hPa 0 mm - 429 W/m² -
1787926944 21.67° C 64% 1021.2 hPa 0 mm - 413 W/m² -
1787926638 21.11° C 66% 1021.2 hPa 0 mm - 398 W/m² -
1787926336 20.56° C 66% 1021.2 hPa 0 mm - 383 W/m² -
1787926032 20.56° C 66% 1020.9 hPa 0 mm - 370 W/m² -

* Rain latest hour (hover to see other rain measurements)
** Current wind speed in m/s (hover to see current wind gust speed)